Regional Weather Roundup
Issued by NWS Bismarck, ND

Home | Current Version | Previous Version | Text Only | Print | Product List | Glossary Off
Versions: 1 2 3 4 5 6 7 8 9 10 11 12 13 14 15 16 17 18 19 20 21 22 23 24 25 26 27 28 29 30 31 32 33 34 35 36 37 38 39 40 41 42 43 44 45 46 47 48 49 50

000
ASUS43 KBIS 011059
RWRBIS

NWR BROADCAST TEXT
NATIONAL WEATHER SERVICE BISMARCK ND
600 AM CDT WED OCT 01 2014

NOTE: "FAIR" INDICATES FEW OR NO CLOUDS BELOW 12,000 FEET WITH NO
SIGNIFICANT WEATHER AND/OR OBSTRUCTIONS TO VISIBILITY.


CITY           SKY/WX    TMP DP  RH WIND       PRES   REMARKS
WILLISTON      CLOUDY    54  49  83 W17G25    29.54R
MINOT          CLOUDY    52  49  89 SW7       29.45R
MINOT AFB      NOT AVBL
BISMARCK       CLOUDY    57  53  86 W13       29.57R
DICKINSON      NOT AVBL
GARRISON         N/A     55  53  93 W18G26    29.50R
HETTINGER ARPT CLOUDY    51  49  92 W13       29.68R
JAMESTOWN      NOT AVBL
CARRINGTON     CLOUDY    54  54 100 SW7       29.54R
HARVEY         CLOUDY    54  54 100 SW13      29.49R
HAZEN          CLOUDY    55  52  88 W16       29.54R
LINTON         PTSUNNY   52  52 100 SW7       29.61R
OAKES            N/A     54  54 100 S10       29.63S
WATFORD CITY   CLOUDY    52  50  93 W17G24    29.55R FOG
$$

CITY           SKY/WX    TMP DP  RH WIND       PRES   REMARKS
GRAND FORKS    CLOUDY    61  53  75 SW14      29.53R
GRAND FORKS AF NOT AVBL
DEVILS LAKE    CLOUDY    55  46  71 SW16G23   29.47R
FARGO          CLEAR     60  56  86 S15G21    29.60S
CAVALIER       CLOUDY    57  54  88 S18G29    29.44R
GRAFTON        CLOUDY    57  54  88 S20G30    29.49R
GWINNER          N/A     57  54  88 SW10      29.64S
LANGDON        CLOUDY    54  50  87 SW21G28   29.43R
$$

CITY           SKY/WX    TMP DP  RH WIND       PRES   REMARKS
ABERDEEN       MOCLDY    55  52  89 S7        29.66S
MOBRIDGE       PTCLDY    53  50  89 SW5       29.63R
BUFFALO          N/A     52  49  89 W18       29.66R
RAPID CITY     MOCLDY    50  45  83 W6        29.76S
GLASGOW        CLOUDY    49  45  86 W17G23    29.69R
SIDNEY         CLOUDY    54  48  82 W20G28    29.62R
WOLF POINT     CLOUDY    53  47  79 W14G24    29.66R
GLENDIVE       CLOUDY    52  46  82 W23G32    29.70R
MILES CITY     CLOUDY    51  42  71 NW23G32   29.77R
BAKER          LGT RAIN  50  48  93 W22G30    29.72R
$$

CITY           SKY/WX    TMP DP  RH WIND       PRES   REMARKS
BILLINGS       MOCLDY    46  37  71 NW7       29.87R
GREAT FALLS    CLOUDY    43  40  89 SW8       29.92R
$$




USA.gov is the U.S. government's official web portal to all federal, state and local government web resources and services.